EW2973 Weather Reports


Display with metric or nautical units.
time (UTC)temp
F
wind
direction
speed
MPH
gust
MPH
rain 1hr
in
rain 24hr
in
rain mn
in
humidity
%
barometer
mb
20260506044523 50 360 0.0 0.0 0.01 0.70 0.00 93 1007.9
20260506043022 50 352 1.0 4.0 0.04 0.70 0.00 92 1008.1
20260506041517 51 352 2.0 3.0 0.11 0.70 0.00 91 1008.1
20260506040021 52 352 0.0 5.0 0.18 0.70 0.00 90 1008.3
20260506034512 55 344 2.0 4.0 0.19 0.69 0.69 89 1008.4
20260506033014 57 267 1.0 11.0 0.19 0.66 0.66 93 1008.5
20260506031529 58 236 2.0 11.0 0.16 0.58 0.58 93 1008.7
20260506030025 58 252 6.0 12.0 0.13 0.52 0.52 93 1008.7
20260506024535 58 203 3.0 7.0 0.15 0.50 0.50 92 1008.6
20260506023020 59 219 1.0 4.0 0.15 0.47 0.47 93 1008.8
20260506021519 59 207 1.0 4.0 0.12 0.43 0.43 93 1008.9
20260506020013 59 252 2.0 13.0 0.08 0.39 0.39 93 1008.9
20260506014514 59 215 1.0 3.0 0.05 0.35 0.35 93 1008.8
20260506013028 59 207 0.0 2.0 0.04 0.32 0.32 93 1008.6
20260506011556 59 198 0.0 2.0 0.03 0.31 0.31 93 1008.4
20260506010023 59 202 1.0 4.0 0.04 0.31 0.31 93 1008.4
20260506004518 59 188 0.0 6.0 0.03 0.30 0.30 93 1008.7
20260506003019 59 222 2.0 6.0 0.01 0.28 0.28 93 1008.7
20260506001512 59 232 1.0 6.0 0.01 0.28 0.28 93 1008.6
20260506000045 59 209 1.0 2.0 0.00 0.27 0.27 93 1008.5
20260505234539 59 202 0.0 2.0 0.01 0.27 0.27 92 1008.5
20260505233024 59 229 0.0 3.0 0.03 0.27 0.27 92 1008.6
20260505231523 59 232 1.0 4.0 0.08 0.27 0.27 92 1008.8
20260505230046 59 207 1.0 4.0 0.11 0.27 0.27 91 1008.9
20260505224534 59 221 1.0 7.0 0.26 0.26 0.26 91 1009.1
20260505223021 59 50 1.0 10.0 0.24 0.24 0.24 90 1009.2
20260505221528 59 263 1.0 6.0 0.19 0.19 0.19 89 1009.2
20260505220027 60 254 2.0 13.0 0.16 0.16 0.16 85 1009.1
20260505214529 67 28 3.0 16.0 0.00 0.00 0.00 68 1008.8
20260505213026 69 243 3.0 15.0 0.00 0.00 0.00 60 1008.1
20260505211527 70 282 5.0 19.0 0.00 0.00 0.00 59 1007.9
20260505210017 69 171 5.0 12.0 0.00 0.00 0.00 59 1007.7
20260505204515 69 156 8.0 12.0 0.00 0.00 0.00 60 1008.3
20260505203028 69 215 5.0 11.0 0.00 0.00 0.00 59 1008.2
20260505201529 69 256 6.0 13.0 0.00 0.00 0.00 59 1008.4
20260505200026 68 153 3.0 14.0 0.00 0.00 0.00 61 1008.7
20260505194528 68 190 6.0 15.0 0.00 0.00 0.00 59 1008.8
20260505193024 68 199 5.0 17.0 0.00 0.00 0.00 60 1009.0
20260505191518 68 237 6.0 18.0 0.00 0.00 0.00 60 1009.2
20260505190016 68 234 6.0 14.0 0.00 0.00 0.00 59 1009.4
20260505184532 68 242 6.0 17.0 0.00 0.00 0.00 59 1009.6
20260505183028 68 277 6.0 15.0 0.00 0.00 0.00 60 1009.5
20260505181523 68 221 8.0 15.0 0.00 0.00 0.00 59 1009.5
20260505180035 68 234 6.0 12.0 0.00 0.00 0.00 59 1009.3
20260505174520 69 242 5.0 14.0 0.00 0.00 0.00 60 1009.3
20260505173019 69 263 6.0 16.0 0.00 0.00 0.00 58 1009.5
20260505171526 70 207 6.0 14.0 0.00 0.00 0.00 56 1009.5
20260505170028 71 200 6.0 15.0 0.00 0.00 0.00 55 1009.5
20260505164526 71 260 6.0 15.0 0.00 0.00 0.00 55 1009.4
20260505163024 71 250 6.0 18.0 0.00 0.00 0.00 55 1009.5
20260505161527 70 140 9.0 18.0 0.00 0.00 0.00 58 1009.8
20260505153031 68 248 5.0 12.0 0.00 0.00 0.00 62 1009.6
20260505151527 66 246 3.0 13.0 0.00 0.00 0.00 65 1009.5
20260505124506 60 242 2.0 10.0 0.00 0.00 0.00 76 1008.9
20260505123026 60 138 3.0 7.0 0.00 0.00 0.00 76 1008.9
20260505121532 60 132 2.0 9.0 0.00 0.00 0.00 76 1008.2
20260505120023 60 195 3.0 7.0 0.00 0.00 0.00 75 1008.1
20260505114517 60 193 3.0 11.0 0.00 0.00 0.00 74 1008.1
20260505113018 60 241 2.0 9.0 0.00 0.00 0.00 72 1008.3
20260505111513 61 232 3.0 12.0 0.00 0.00 0.00 71 1008.5
20260505101519 62 182 2.0 8.0 0.00 0.00 0.00 66 1008.4
20260505100032 63 213 3.0 9.0 0.00 0.00 0.00 65 1008.3
20260505094515 63 242 4.0 11.0 0.00 0.00 0.00 64 1008.3
20260505093024 63 247 6.0 12.0 0.00 0.00 0.00 62 1008.0
20260505091533 64 234 2.0 11.0 0.00 0.00 0.00 62 1007.9
20260505090024 64 223 3.0 14.0 0.00 0.00 0.00 62 1008.0
20260505084525 64 242 5.0 9.0 0.00 0.00 0.00 62 1007.9
20260505083033 64 249 5.0 12.0 0.00 0.00 0.00 61 1007.6
20260505081522 64 197 5.0 12.0 0.00 0.00 0.00 60 1007.4
20260505080015 65 243 4.0 13.0 0.00 0.00 0.00 60 1006.9
20260505074512 65 263 4.0 11.0 0.00 0.00 0.00 60 1006.9
20260505073027 65 206 5.0 14.0 0.00 0.00 0.00 60 1007.0
20260505071535 65 257 4.0 9.0 0.00 0.00 0.00 61 1006.9
20260505070029 65 236 3.0 13.0 0.00 0.00 0.00 61 1006.8
20260505064524 65 202 6.0 11.0 0.00 0.00 0.00 60 1006.7
20260505063029 65 167 2.0 11.0 0.00 0.00 0.00 61 1006.6
20260505061524 65 231 3.0 11.0 0.00 0.00 0.00 61 1006.7
20260505060015 65 238 3.0 10.0 0.00 0.00 0.00 60 1006.8
20260505054541 66 199 5.0 10.0 0.00 0.00 0.00 60 1006.9
20260505053026 66 205 3.0 9.0 0.00 0.00 0.00 60 1007.0